Location: Bonningues
(50.7927°N, 2.0150°E)
Time: 16:33:40
(UTC+00:00)

SL-16 R/B - Pass Details

Date: 08 August 2020
Orbit: 843 x 845 km, 71.0° (Epoch: 18 September)

Event Time Altitude Azimuth Distance (km) Brightness Sun altitude
Rises 23:17:27 0° 323° (NW) 3,417 6.4 -22.8°
Reaches altitude 10° 23:20:15 10° 311° (NW) 2,477 5.3 -22.9°
Maximum altitude 23:24:50 26° 257° (WSW) 1,617 3.6 -23.0°
Enters shadow 23:26:03 24° 237° (WSW) 1,691 3.5 -23.1°
